Flag for Uruguay Weather past 2 weeks in Canelones, Uruguay

Now
55 °F

Cool.


Feels Like: 55 °F
Forecast: 46 / 75 °F
Wind: 5 mph from Northwest

Location: Carrasco

Current Time: Dec 23, 2014 at 12:30:56 AM

Latest Report: Dec 23, 2014 at 12:00 AM


Visibility: N/A

Pressure: 30.18 "Hg

Humidity: 77%

Dew point: 48 °F

Location of CanelonesLocation

Historic Weather in Canelones — Graph

°F

Canelones temperature yesterday

Maximum temperature yesterday: 68 °F (at 3:00 PM)
Minimum temperature yesterday: 54 °F (at 6:00 AM)
Average temperature yesterday: 62 °F

Past Weeks' High & Low Weather Summary

 TemperatureHumidityPressure
High93 °F (Dec 19, 3:00 PM)100% (Dec 8, 8:00 AM)30.15 "Hg (Dec 8, 8:00 AM)
Low54 °F (Dec 22, 6:00 AM)20% (Dec 19, 6:00 PM)29.53 "Hg (Dec 20, 4:00 PM)
Average70 °F69%29.86 "Hg
* Reported Dec 7 11:00 PM — Dec 22 11:00 PM, Canelones, Weather by CustomWeather, © 2014

Note: Actual official high and low records may vary slightly from our data, if they occured in-between our weather recording intervals... More about our weather records

Advertising

Canelones weather history for previous 24 hours

 ConditionsComfort  
Time TempWeatherWind HumidityBarometerVisibility
11:00 PM
Dec 22
63 °FClear.6 mph59%30.15 "Hg10 mi
10:00 PM63 °FThunderstorms. Passing clouds.6 mph68%30.12 "HgN/A
9:00 PM64 °FClear.6 mph43%30.09 "Hg10 mi
8:00 PM66 °FSunny.10 mph43%30.09 "Hg10 mi
7:00 PM68 °FSunny.10 mph40%30.04 "Hg10 mi
6:00 PM68 °FSunny.15 mph43%30.04 "Hg10 mi
5:00 PM66 °FSunny.10 mph46%30.04 "Hg10 mi
4:00 PM68 °FSunny.10 mph64%30.04 "Hg10 mi
3:00 PM68 °FSunny.12 mph56%30.04 "Hg10 mi
2:00 PM64 °FSunny.14 mph56%30.04 "Hg10 mi
1:00 PM64 °FSunny.6 mph64%30.04 "Hg10 mi
12:00 PM59 °FLight rain. Broken clouds.6 mph77%30.04 "Hg4 mi
11:00 AM61 °FLight rain. Broken clouds.9 mph63%30.04 "Hg4 mi
10:00 AM64 °FSunny.5 mph56%30.01 "Hg10 mi
9:00 AM61 °FSunny.7 mph72%30.01 "Hg10 mi
8:00 AM55 °FSunny.5 mph88%29.98 "Hg10 mi
7:00 AM54 °FBroken clouds.5 mph94%29.92 "HgN/A
6:00 AM54 °FLight rain. Passing clouds.5 mph94%29.92 "HgN/A
5:00 AM55 °FRain. Overcast.20 mph88%29.89 "HgN/A
4:00 AM57 °FPassing clouds.3 mph82%29.86 "HgN/A
3:00 AM57 °FPassing clouds.3 mph77%29.83 "HgN/A
2:00 AM63 °FPassing clouds.7 mph59%29.83 "HgN/A
1:00 AM63 °FPassing clouds.9 mph59%29.83 "HgN/A
12:00 AM63 °FPassing clouds.14 mph59%29.83 "HgN/A
Weather by CustomWeather, © 2014

See weather overviewHow to use our weather pages